[[{"header":{"parameterUnit":"m.s-1","parameterCategory":1,"la1":30.2991,"la2":30.254,"lo1":-89.0895,"lo2":-89.0444,"dy":0.0017,"dx":0.0017,"nx":28,"ny":28,"refTime":"2024-05-04T09:00:00:Z","depth":0,"parameterNumber":2,"parameterNumberName":"U-component_of_WINDS"},"data":[0,0,0,0,0,0,0,0,0,0,0,0,0,0,0,0,0,0,0,0,0,0,0,0,0,0,0,0,0,0,0,0,0,0,0,0,0,0,0,0,0,0,0,0,0,0,0,0,0,0,0,0,0,0,0,0,0,0,-1.897,-1.897,0,-1.8932,-1.8931,-1.8931,-1.887,-1.8869,-1.8868,-1.8867,-1.8826,-1.8826,-1.8826,0,0,0,0,0,0,0,0,0,0,0,0,0,-1.8992,-1.8992,-1.897,-1.897,-1.8969,-1.8932,-1.8931,-1.8931,-1.887,-1.8869,-1.8868,-1.8866,-1.8826,-1.8826,-1.8826,0,0,0,0,0,0,0,0,0,0,0,0,0,-1.8971,-1.8992,-1.897,-1.8935,-1.8931,-1.8932,-1.8931,-1.8931,-1.8871,-1.8869,-1.8867,-1.8866,-1.8826,-1.8826,-1.8826,-1.8858,0,0,-1.8826,-1.8826,0,0,0,0,0,0,0,0,-1.8972,-1.897,-1.894,-1.8937,-1.8933,-1.8904,-1.8924,-1.8906,-1.8871,-1.8894,-1.8867,-1.8865,-1.8853,-1.8851,-1.8847,-1.8856,-1.8854,-1.8826,-1.8826,-1.8826,-1.8826,0,0,0,0,0,0,0,-1.8974,-1.8972,-1.8955,-1.894,-1.8936,-1.8921,-1.8916,-1.892,-1.8883,-1.8891,-1.8887,-1.8883,-1.8851,-1.8847,-1.8846,-1.8854,-1.8826,-1.8826,-1.8826,-1.8825,-1.8888,-1.889,0,0,0,0,0,0,-1.8981,-1.8973,-1.8956,-1.8954,-1.8949,-1.8922,-1.8916,-1.8915,-1.8883,-1.8876,-1.8885,-1.8881,-1.8848,-1.8846,-1.8844,-1.888,-1.8826,-1.8825,-1.8825,-1.8887,-1.8889,-1.8891,0,0,0,0,0,0,-1.8981,-1.898,-1.8958,-1.8962,-1.8958,-1.8923,-1.8922,-1.8915,-1.8911,-1.8878,-1.8871,-1.8888,-1.8847,-1.8844,-1.8855,-1.8878,-1.8825,-1.8825,-1.8885,-1.8887,-1.889,-1.8952,0,0,0,0,0,0,-1.8982,-1.898,-1.8992,-1.8963,-1.8958,-1.897,-1.8923,-1.8916,-1.8912,-1.8906,-1.8879,-1.8873,-1.8846,-1.8856,-1.8855,-1.8877,-1.8825,-1.8883,-1.8886,-1.8889,-1.8948,-1.8956,-1.8964,0,0,0,0,0,-1.8983,-1.9011,-1.8993,-1.8991,-1.8972,-1.8971,-1.8969,-1.8937,-1.8914,-1.8925,-1.8904,-1.8874,-1.8876,-1.8858,-1.8856,-1.8878,-1.8881,-1.8885,-1.8889,-1.8944,-1.8955,-1.8964,0,0,0,0,0,0,-1.9042,-1.9006,-1.8986,-1.9005,-1.8992,-1.8961,-1.8974,-1.8949,-1.8942,-1.8937,-1.8897,-1.8892,-1.8908,-1.8894,-1.8875,-1.8908,-1.8874,-1.8878,-1.8916,-1.8926,-1.8934,-1.8937,-1.8825,0,0,0,0,0,-1.9058,-1.906,-1.9028,-1.9048,-1.9042,-1.901,-1.9008,-1.8985,-1.897,-1.8964,-1.8943,-1.8929,-1.8927,-1.8926,-1.8921,-1.8946,-1.8939,-1.896,-1.8968,-1.8975,-1.8979,-1.8991,-1.9,-1.8904,-1.8904,-1.8903,0,0,-1.9089,-1.907,-1.9073,-1.9059,-1.9046,-1.905,-1.9005,-1.901,-1.9013,-1.8964,-1.8974,-1.8958,-1.894,-1.8959,-1.8966,-1.8947,-1.9004,-1.898,-1.8986,-1.8985,-1.8996,-1.9006,-1.9014,-1.8906,-1.8906,-1.8905,0,0,-1.9148,-1.9133,-1.9148,-1.9137,-1.9118,-1.9097,-1.9101,-1.9074,-1.9062,-1.9071,-1.9036,-1.9038,-1.9034,-1.9023,-1.9017,-1.9074,-1.9046,-1.9074,-1.9115,-1.9128,-1.9136,-1.9142,-1.9163,-1.9171,-1.9078,-1.9078,-1.9078,0,-1.9189,-1.9193,-1.9159,-1.9167,-1.9162,-1.912,-1.9135,-1.9125,-1.9106,-1.9104,-1.9084,-1.908,-1.9065,-1.908,-1.9094,-1.9091,-1.9094,-1.9076,-1.9137,-1.9144,-1.9149,-1.9168,-1.9176,-1.9081,-1.9081,-1.908,-1.908,0,-1.9244,-1.9248,-1.9262,-1.9246,-1.9243,-1.9254,-1.9223,-1.9224,-1.9202,-1.9183,-1.9193,-1.9174,-1.9165,-1.9168,-1.9146,-1.918,-1.917,-1.9145,-1.9109,-1.9163,-1.918,-1.9187,-1.9086,-1.9085,-1.9084,-1.9083,0,0,-1.9338,-1.9304,-1.931,-1.9302,-1.928,-1.9281,-1.9292,-1.9284,-1.9286,-1.9275,-1.9282,-1.9281,-1.9258,-1.9251,-1.9228,-1.924,-1.9287,-1.9213,-1.9212,-1.9227,-1.9324,-1.9343,-1.9352,-1.9269,-1.927,-1.9271,-1.9326,0,-1.9392,-1.9407,-1.9378,-1.94,-1.9403,-1.9364,-1.9373,-1.936,-1.9343,-1.9343,-1.9324,-1.9324,-1.9293,-1.9289,-1.9299,-1.9279,-1.9305,-1.9274,-1.9275,-1.9275,-1.928,-1.9361,-1.9381,-1.9433,-1.9332,-1.9333,-1.9334,0,-1.9456,-1.9449,-1.9472,-1.9449,-1.9449,-1.9458,-1.9449,-1.945,-1.9435,-1.9422,-1.9415,-1.9388,-1.9397,-1.9364,-1.9376,-1.9355,-1.9354,-1.9345,-1.9346,-1.9344,-1.9308,-1.9361,-1.9449,-1.9457,-1.9344,-1.9344,-1.9343,0,-1.9523,-1.9519,-1.9532,-1.9527,-1.95,-1.9507,-1.9496,-1.948,-1.9478,-1.947,-1.9468,-1.9462,-1.9459,-1.9455,-1.9427,-1.9406,-1.9443,-1.9407,-1.9432,-1.9433,-1.944,-1.944,-1.9529,-1.9441,-1.9441,-1.944,-1.944,0,-1.9585,-1.9601,-1.9561,-1.9569,-1.9586,-1.9553,-1.957,-1.9556,-1.9542,-1.9547,-1.9512,-1.9518,-1.9481,-1.9483,-1.9461,-1.9474,-1.9473,-1.9463,-1.9457,-1.9465,-1.9467,-1.9464,-1.9459,-1.9443,-1.9442,-1.9442,-1.9441,0,-1.9662,-1.9636,-1.9647,-1.9622,-1.9616,-1.9629,-1.9607,-1.9614,-1.9595,-1.9602,-1.9602,-1.9572,-1.9573,-1.9545,-1.9539,-1.9525,-1.9547,-1.9535,-1.9552,-1.9548,-1.9575,-1.9573,-1.9664,-1.9675,-1.958,-1.9581,-1.9582,0,-1.9703,-1.9714,-1.969,-1.9691,-1.9682,-1.9684,-1.9682,-1.9651,-1.965,-1.9635,-1.9644,-1.9641,-1.9637,-1.964,-1.9618,-1.9614,-1.9601,-1.9633,-1.9599,-1.9608,-1.9601,-1.9601,-1.9602,-1.964,-1.9641,-1.9642,-1.9643,0,-1.978,-1.9767,-1.9765,-1.976,-1.9758,-1.9752,-1.9743,-1.9746,-1.9712,-1.9713,-1.9713,-1.971,-1.9705,-1.9703,-1.9696,-1.9684,-1.9658,-1.9654,-1.9659,-1.9668,-1.9678,-1.9673,-1.9571,-1.9652,-1.9651,-1.965,-1.965,-1.9649,-1.984,-1.9848,-1.9833,-1.9833,-1.9823,-1.9817,-1.9822,-1.9804,-1.9804,-1.9797,-1.9779,-1.9783,-1.9769,-1.9755,-1.9747,-1.9749,-1.9733,-1.9741,-1.9743,-1.9745,-1.975,-1.9678,-1.9748,-1.9747,-1.9747,-1.9747,-1.9747,0,-1.9915,-1.9904,-1.9904,-1.9893,-1.9893,-1.9869,-1.9859,-1.9861,-1.9864,-1.9854,-1.9851,-1.9852,-1.985,-1.9829,-1.9825,-1.9831,-1.9819,-1.9831,-1.983,-1.9828,-1.9765,-1.9761,-1.9841,-1.9841,-1.9841,-1.9841,-1.9841,-1.9841,-1.9954,-1.9967,-1.9953,-1.9961,-1.995,-1.9953,-1.9949,-1.9943,-1.9934,-1.9937,-1.9936,-1.9922,-1.9907,-1.9902,-1.99,-1.9894,-1.9894,-1.991,-1.99,-1.9841,-1.9832,-1.9824,-1.9819,-1.991,-1.9911,-1.9963,-1.9963,-1.9964]},{"header":{"parameterUnit":"m.s-1","parameterCategory":1,"la1":30.2991,"la2":30.254,"lo1":-89.0895,"lo2":-89.0444,"dy":0.0017,"dx":0.0017,"nx":28,"ny":28,"refTime":"2024-05-04T09:00:00:Z","depth":0,"parameterNumber":3,"parameterNumberName":"V-component_of_WINDS"},"data":[0,0,0,0,0,0,0,0,0,0,0,0,0,0,0,0,0,0,0,0,0,0,0,0,0,0,0,0,0,0,0,0,0,0,0,0,0,0,0,0,0,0,0,0,0,0,0,0,0,0,0,0,0,0,0,0,0,0,3.2749,3.2749,0,3.2778,3.2778,3.2778,3.2814,3.2815,3.2816,3.2816,3.2843,3.2843,3.2844,0,0,0,0,0,0,0,0,0,0,0,0,0,3.2721,3.2722,3.2748,3.2749,3.2749,3.2778,3.2778,3.2779,3.2814,3.2815,3.2816,3.2816,3.2843,3.2843,3.2844,0,0,0,0,0,0,0,0,0,0,0,0,0,3.274,3.2722,3.2748,3.2771,3.2773,3.2778,3.2778,3.2779,3.2814,3.2815,3.2816,3.2817,3.2843,3.2843,3.2844,3.2828,0,0,3.2845,3.2845,0,0,0,0,0,0,0,0,3.2739,3.2741,3.2767,3.2769,3.2772,3.2793,3.2779,3.2795,3.2814,3.2798,3.2816,3.2817,3.2826,3.2828,3.2831,3.2829,3.2831,3.2845,3.2845,3.2845,3.2845,0,0,0,0,0,0,0,3.2738,3.274,3.276,3.2767,3.277,3.2778,3.2782,3.2782,3.2807,3.28,3.2802,3.2806,3.2827,3.2831,3.2832,3.2831,3.2845,3.2845,3.2845,3.2845,3.2819,3.2818,0,0,0,0,0,0,3.2733,3.2739,3.2759,3.2761,3.2757,3.2778,3.2782,3.2785,3.2807,3.2811,3.2805,3.2807,3.283,3.2832,3.2833,3.2817,3.2845,3.2845,3.2845,3.282,3.2819,3.2818,0,0,0,0,0,0,3.2733,3.2735,3.2758,3.2751,3.2754,3.2778,3.2781,3.2786,3.2789,3.2811,3.2815,3.2804,3.2831,3.2833,3.283,3.2818,3.2845,3.2845,3.2821,3.282,3.2818,3.2784,0,0,0,0,0,0,3.2732,3.2734,3.2729,3.275,3.2754,3.2754,3.278,3.2786,3.279,3.2793,3.2811,3.2815,3.2831,3.2829,3.283,3.2819,3.2846,3.2822,3.282,3.2819,3.2786,3.2782,3.2778,0,0,0,0,0,3.2731,3.2718,3.2729,3.2731,3.2749,3.2754,3.2756,3.2776,3.2789,3.2784,3.2798,3.2814,3.2819,3.2828,3.283,3.2819,3.2823,3.2821,3.2819,3.2788,3.2783,3.2778,0,0,0,0,0,0,3.2693,3.2721,3.2733,3.2727,3.2738,3.276,3.2754,3.2769,3.2776,3.2779,3.2803,3.2806,3.28,3.2809,3.2819,3.2806,3.2824,3.2822,3.28,3.2795,3.2791,3.2789,3.2846,0,0,0,0,0,3.2684,3.2687,3.2711,3.2703,3.2708,3.273,3.2733,3.2747,3.2759,3.2764,3.2777,3.2788,3.2792,3.2794,3.2799,3.2788,3.2792,3.2781,3.2777,3.2774,3.2772,3.2767,3.2763,3.2812,3.2812,3.2812,0,0,3.2666,3.2681,3.2681,3.2696,3.2706,3.2708,3.2733,3.2734,3.2735,3.2763,3.2762,3.2772,3.2785,3.2778,3.2776,3.2786,3.2759,3.2771,3.2768,3.2768,3.2765,3.276,3.2756,3.281,3.281,3.2811,0,0,3.2633,3.2645,3.264,3.265,3.2666,3.2681,3.268,3.2699,3.2708,3.2707,3.2728,3.273,3.2736,3.2745,3.275,3.2722,3.2737,3.2722,3.27,3.2696,3.2692,3.2689,3.2679,3.2675,3.2721,3.272,3.272,0,3.2608,3.2612,3.2635,3.2635,3.2641,3.2668,3.2663,3.2671,3.2687,3.269,3.2701,3.271,3.272,3.2716,3.271,3.2713,3.2712,3.272,3.2691,3.2688,3.2685,3.2676,3.2672,3.2719,3.2719,3.2719,3.2719,0,3.2581,3.2583,3.2577,3.2594,3.2599,3.2596,3.2618,3.262,3.2634,3.2648,3.2647,3.266,3.2669,3.2669,3.2682,3.2667,3.2673,3.2687,3.2705,3.2678,3.267,3.2667,3.2716,3.2717,3.2717,3.2718,0,0,3.2524,3.2554,3.2552,3.256,3.258,3.2582,3.258,3.259,3.2591,3.2601,3.2601,3.2606,3.262,3.2625,3.264,3.2636,3.2613,3.2651,3.2651,3.2643,3.2597,3.2587,3.2582,3.2624,3.2623,3.2623,3.2596,0,3.2495,3.2496,3.2517,3.2511,3.2514,3.254,3.2538,3.255,3.2563,3.2567,3.258,3.2584,3.2601,3.2605,3.2602,3.2616,3.2604,3.2619,3.2623,3.2623,3.2619,3.2578,3.2566,3.2541,3.2593,3.2593,3.2592,0,3.2461,3.2471,3.2466,3.2487,3.2489,3.2487,3.2498,3.2502,3.2515,3.2525,3.2532,3.2549,3.2549,3.2567,3.2566,3.2576,3.2578,3.2586,3.2585,3.2586,3.2606,3.2578,3.2533,3.2529,3.2587,3.2588,3.2588,0,3.2421,3.2433,3.2432,3.2438,3.2462,3.2461,3.247,3.2485,3.249,3.2499,3.2502,3.251,3.2515,3.2521,3.254,3.2551,3.2537,3.2556,3.2545,3.2544,3.254,3.254,3.2495,3.2542,3.2542,3.2542,3.2542,0,3.2387,3.2383,3.2415,3.2414,3.241,3.2434,3.2429,3.2441,3.2454,3.2456,3.2478,3.2479,3.2504,3.2507,3.2522,3.2519,3.2521,3.2528,3.2532,3.2527,3.2526,3.2529,3.2531,3.2541,3.2541,3.2541,3.2542,0,3.2342,3.2363,3.2363,3.2387,3.2392,3.2388,3.2408,3.2408,3.2423,3.2424,3.2426,3.2448,3.2454,3.2473,3.2483,3.2493,3.2485,3.2493,3.2481,3.2484,3.2471,3.2472,3.2427,3.2422,3.2471,3.2471,3.247,0,3.2318,3.2316,3.234,3.2343,3.2352,3.2357,3.2363,3.2386,3.239,3.2406,3.2404,3.2412,3.2419,3.2426,3.2442,3.245,3.2458,3.2442,3.2459,3.2453,3.2458,3.2458,3.2458,3.2438,3.2437,3.2436,3.2436,0,3.2275,3.2286,3.2293,3.2304,3.2311,3.232,3.2331,3.2332,3.2358,3.2362,3.2368,3.2374,3.2385,3.2391,3.2402,3.2411,3.2428,3.243,3.2428,3.2422,3.2416,3.2419,3.2471,3.2431,3.2432,3.2432,3.2432,3.2433,3.224,3.224,3.2257,3.2264,3.2275,3.2285,3.2286,3.2302,3.2308,3.2319,3.2333,3.2337,3.2351,3.2367,3.2375,3.2379,3.2388,3.2385,3.2384,3.2383,3.238,3.2415,3.2381,3.2381,3.2381,3.2381,3.2382,0,3.2198,3.2211,3.2218,3.2233,3.2239,3.2255,3.2268,3.2272,3.2276,3.2289,3.2296,3.2303,3.231,3.2328,3.2336,3.2336,3.2344,3.2337,3.2337,3.2339,3.2371,3.2373,3.2331,3.2331,3.2331,3.2331,3.2331,3.2331,3.2177,3.2178,3.2191,3.2196,3.2209,3.2215,3.2221,3.223,3.224,3.2248,3.2254,3.2266,3.228,3.229,3.2297,3.2302,3.2304,3.2295,3.2303,3.2332,3.2337,3.2342,3.2343,3.2296,3.2296,3.2271,3.227,3.227]}]]